[[{"header":{"parameterUnit":"m.s-1","parameterCategory":2,"la1":30.2992,"la2":30.254,"lo1":-89.0895,"lo2":-89.0443,"dy":0.0025,"dx":0.0025,"nx":19,"ny":19,"refTime":"2026-04-30T09:00:00:Z","depth":"0","parameterNumber":2,"parameterNumberName":"U-component_of_CURRENTS"},"data":[0,0,0,0.1549,0.1551,0.1593,0.1593,0.156,0.156,0,0,0,0,0,0,0,0,0,0,0,0.1524,0.1524,0.1549,0.1551,0.1593,0.1593,0.156,0.156,0,0,0,0,0,0,0,0,0,0,0,0.1523,0.1524,0.1525,0.1551,0.1593,0.1593,0.1561,0.1545,0,0,0,0,0,0,0,0,0,0,0.1513,0.1498,0.1524,0.1525,0.1551,0.1593,0.1593,0.1545,0.1546,0.1523,0,0.1541,0,0.1562,0.1558,0.1558,0,0,0,0.1529,0.1497,0.1526,0.1525,0.1552,0.1593,0.1568,0.1546,0.1547,0.1524,0.1541,0.154,0.1562,0.1558,0.1558,0.1579,0.1579,0,0,0.1527,0.1509,0.1526,0.1527,0.1576,0.1567,0.157,0.1547,0.1541,0.1541,0.154,0.1561,0.1557,0.1557,0.1579,0.1579,0,0,0,0.1535,0.1507,0.1538,0.1528,0.155,0.1568,0.1572,0.1541,0.1558,0.154,0.1561,0.1557,0.1557,0.1578,0.1579,0.1614,0,0,0,0.1532,0.1514,0.1537,0.1523,0.1551,0.1556,0.1566,0.1558,0.1558,0.1561,0.1557,0.1557,0.1577,0.1578,0.1612,0.1609,0,0,0,0.1519,0.1512,0.1525,0.1523,0.1555,0.1558,0.1571,0.1559,0.1571,0.1558,0.1556,0.1577,0.1578,0.161,0.1607,0.1656,0,0,0,0.1487,0.1497,0.1525,0.1545,0.1555,0.1598,0.1571,0.1585,0.1578,0.1557,0.1578,0.1579,0.161,0.1605,0.1654,0.1552,0.1553,0,0,0.148,0.1495,0.151,0.1538,0.1586,0.159,0.1619,0.1597,0.1587,0.1573,0.1574,0.1613,0.1606,0.1655,0.1618,0.1617,0,0,0,0.1496,0.1504,0.1526,0.1562,0.1605,0.1628,0.1628,0.1632,0.1634,0.1594,0.1626,0.1621,0.1651,0.1585,0.1585,0.1482,0.1584,0.1584,0.1584,0.1441,0.1488,0.151,0.1569,0.1605,0.1649,0.1667,0.1671,0.166,0.1679,0.1661,0.1733,0.1664,0.1662,0.1558,0.1683,0.1683,0.1683,0.1683,0.1415,0.1429,0.1491,0.1525,0.1586,0.1615,0.1682,0.1694,0.1739,0.1712,0.174,0.1638,0.1664,0.1553,0.1686,0.1685,0.1685,0.1685,0.1684,0.1366,0.138,0.1401,0.1455,0.1513,0.1588,0.1634,0.1703,0.1753,0.1786,0.1729,0.1727,0.162,0.1812,0.1812,0.1812,0.1812,0.1813,0.1813,0.1303,0.133,0.1328,0.1393,0.1421,0.1492,0.1616,0.1661,0.173,0.175,0.175,0.1622,0.1772,0.1756,0.1816,0.1816,0.1815,0.1815,0.1815,0.1259,0.1259,0.1255,0.1264,0.1324,0.1336,0.1479,0.1562,0.165,0.1658,0.1577,0.1739,0.1718,0.1716,0.1699,0.1741,0.1741,0.1741,0.1741,0.1217,0.1222,0.1191,0.118,0.1197,0.1261,0.124,0.1336,0.1434,0.1443,0.1491,0.1417,0.1425,0.1383,0.1389,0.1364,0.132,0.132,0.1319,0.1188,0.1186,0.1144,0.1131,0.1135,0.1147,0.1091,0.1076,0.1205,0.1296,0.1373,0.1391,0.1278,0.1298,0.1228,0.1244,0.1202,0,0]},{"header":{"parameterUnit":"m.s-1","parameterCategory":2,"la1":30.2992,"la2":30.254,"lo1":-89.0895,"lo2":-89.0443,"dy":0.0025,"dx":0.0025,"nx":19,"ny":19,"refTime":"2026-04-30T09:00:00:Z","depth":"0","parameterNumber":3,"parameterNumberName":"V-component_of_CURRENTS"},"data":[0,0,0,0.0008,0.0006,-0.0108,-0.0108,-0.0157,-0.0157,0,0,0,0,0,0,0,0,0,0,0,0.007,0.0069,0.0009,0.0005,-0.0108,-0.0108,-0.0157,-0.0157,0,0,0,0,0,0,0,0,0,0,0,0.007,0.0069,0.0069,0.0005,-0.0108,-0.0108,-0.0157,-0.0094,0,0,0,0,0,0,0,0,0,0,0.0005,0.0052,0.0069,0.0069,0.0004,-0.0108,-0.0109,-0.0092,-0.0098,-0.0079,0,-0.0089,0,-0.0134,-0.0159,-0.0159,0,0,0,0.0011,0.0057,0.0015,0.0069,0.0003,-0.0108,-0.0055,-0.0096,-0.0102,-0.0087,-0.009,-0.0094,-0.0135,-0.0159,-0.0159,-0.0154,-0.0153,0,0,0.0017,0.0058,0.002,0.0012,-0.0014,-0.0052,-0.0059,-0.0101,-0.0093,-0.009,-0.0096,-0.0136,-0.0159,-0.0159,-0.0154,-0.0154,0,0,0,0.0032,0.0063,0.0021,0.0015,-0.0019,-0.0055,-0.0063,-0.0091,-0.0108,-0.0097,-0.0136,-0.0159,-0.0159,-0.0154,-0.0154,-0.0083,0,0,0,0.0036,0.0069,0.0024,0.0048,-0.0019,-0.007,-0.0052,-0.0104,-0.0112,-0.0136,-0.0159,-0.016,-0.0154,-0.0154,-0.0086,-0.0029,0,0,0,0.0073,0.0073,0.0061,0.005,-0.0006,-0.0071,-0.009,-0.0107,-0.0136,-0.0159,-0.016,-0.0155,-0.0154,-0.0088,-0.0034,0.0028,0,0,0,0.0115,0.0117,0.0063,0.0055,-0.0005,-0.0053,-0.0091,-0.0128,-0.0145,-0.0159,-0.0154,-0.0154,-0.0088,-0.0037,0.0025,0.0113,0.0136,0,0,0.0141,0.0122,0.0114,0.0062,0.0033,-0.0038,-0.0044,-0.0088,-0.0128,-0.0133,-0.0134,-0.0085,-0.0034,0.0027,0.0144,0.0167,0,0,0,0.0136,0.0138,0.0119,0.0087,0.0031,0.0017,-0.005,-0.0071,-0.0092,-0.014,-0.0093,-0.0064,-0.0027,0.0018,0.0036,-0.0004,-0.0151,-0.0151,-0.0151,0.0217,0.0177,0.0178,0.0134,0.0114,0.0052,0.0046,0.001,-0.0048,-0.005,-0.0014,0.0075,0.0122,0.0136,0.0094,-0.0036,-0.0036,-0.0036,-0.0036,0.0264,0.026,0.0238,0.0228,0.0201,0.0198,0.0151,0.0111,0.0116,0.0042,0.0074,0.0081,0.016,0.0107,-0.0031,-0.0032,-0.0033,-0.0033,-0.0033,0.0309,0.0306,0.0302,0.0308,0.0329,0.029,0.0334,0.0274,0.0204,0.023,0.027,0.0269,0.0232,0.0237,0.0237,0.0238,0.0238,0.0239,0.0239,0.0349,0.0348,0.0373,0.0391,0.0413,0.0443,0.0438,0.045,0.0433,0.0377,0.0377,0.0265,0.0158,0.0158,0.0247,0.0246,0.0245,0.0244,0.0243,0.0383,0.0387,0.0427,0.0455,0.0518,0.0587,0.0598,0.0655,0.0658,0.0671,0.0502,0.0454,0.0448,0.0433,0.0439,0.0597,0.0597,0.0597,0.0597,0.0406,0.0411,0.046,0.0513,0.0591,0.0643,0.0749,0.0785,0.0731,0.0683,0.0623,0.056,0.0548,0.0542,0.0525,0.0529,0.0705,0.0705,0.0705,0.0427,0.0439,0.0477,0.0522,0.0614,0.0699,0.0787,0.0826,0.0764,0.07,0.0553,0.0549,0.0439,0.0423,0.0392,0.0371,0.037,0,0]}],[{"header":{"parameterUnit":"m.s-1","parameterCategory":2,"la1":30.2992,"la2":30.254,"lo1":-89.0895,"lo2":-89.0443,"dy":0.0025,"dx":0.0025,"nx":19,"ny":19,"refTime":"2026-04-30T09:00:00:Z","depth":"2","parameterNumber":2,"parameterNumberName":"U-component_of_CURRENTS"},"data":[0,0,0,0.1644,0.1647,0.1737,0.1737,0.1699,0.1699,0,0,0,0,0,0,0,0,0,0,0,0.1574,0.1575,0.1644,0.1648,0.1737,0.1737,0.1699,0.1699,0,0,0,0,0,0,0,0,0,0,0,0.1574,0.1574,0.1575,0.1648,0.1737,0.1737,0.17,0.166,0,0,0,0,0,0,0,0,0,0,0.1588,0.1559,0.1574,0.1575,0.1649,0.1737,0.1737,0.1659,0.1662,0.1628,0,0.1648,0,0.1706,0.1697,0.1697,0,0,0,0.1607,0.1557,0.1596,0.1575,0.165,0.1737,0.1685,0.1662,0.1665,0.1632,0.1648,0.1649,0.1705,0.1697,0.1697,0.1718,0.1719,0,0,0.1602,0.1571,0.1594,0.1599,0.1678,0.1682,0.1688,0.1665,0.1658,0.1648,0.165,0.1704,0.1696,0.1696,0.1718,0.1718,0,0,0,0.1615,0.1568,0.1609,0.1598,0.1645,0.1686,0.1693,0.1658,0.1677,0.165,0.1704,0.1696,0.1696,0.1717,0.1718,0.1747,0,0,0,0.161,0.158,0.1607,0.1587,0.1647,0.1677,0.1685,0.1676,0.1678,0.1704,0.1696,0.1696,0.1717,0.1718,0.1745,0.1743,0,0,0,0.1569,0.1576,0.1591,0.1586,0.165,0.168,0.1695,0.1678,0.1712,0.1697,0.1695,0.1716,0.1717,0.1744,0.174,0.1786,0,0,0,0.1527,0.1539,0.1589,0.1619,0.165,0.1719,0.1696,0.1726,0.1717,0.1696,0.1717,0.1718,0.1743,0.1739,0.1784,0.1664,0.1663,0,0,0.1518,0.1537,0.1557,0.1607,0.169,0.1704,0.1751,0.1728,0.172,0.1705,0.1707,0.1746,0.174,0.1786,0.173,0.1727,0,0,0,0.154,0.1554,0.1588,0.165,0.1715,0.1752,0.1765,0.1769,0.177,0.1733,0.1761,0.1757,0.1785,0.1708,0.1707,0.1723,0.1723,0.1723,0.1723,0.1488,0.1547,0.1585,0.1661,0.1709,0.1781,0.1799,0.1804,0.1794,0.1812,0.1793,0.186,0.178,0.1777,0.1815,0.1815,0.1815,0.1815,0.1815,0.1467,0.149,0.1567,0.1617,0.1693,0.1731,0.1807,0.1821,0.1867,0.1841,0.1868,0.1757,0.1776,0.1818,0.1817,0.1817,0.1816,0.1816,0.1816,0.1423,0.1441,0.1468,0.1536,0.161,0.1697,0.1746,0.1822,0.1875,0.1908,0.1839,0.1836,0.1872,0.1931,0.1931,0.1932,0.1932,0.1932,0.1932,0.1357,0.139,0.1392,0.1469,0.1505,0.1585,0.1722,0.1768,0.1834,0.1854,0.1854,0.19,0.1896,0.188,0.1935,0.1935,0.1934,0.1934,0.1934,0.1317,0.1316,0.1314,0.1329,0.1403,0.142,0.1569,0.1647,0.1737,0.1738,0.1832,0.1833,0.1812,0.1812,0.1793,0.1824,0.1824,0.1824,0.1824,0.1278,0.1282,0.1254,0.1247,0.1271,0.1343,0.1304,0.135,0.1504,0.1549,0.1561,0.1487,0.1498,0.1456,0.1463,0.1436,0.1374,0.1373,0.1372,0.1252,0.1249,0.1211,0.12,0.1212,0.1223,0.1139,0.1049,0.1153,0.1353,0.1465,0.1797,0.1718,0.1724,0.1682,0.1685,0.1651,0,0]},{"header":{"parameterUnit":"m.s-1","parameterCategory":2,"la1":30.2992,"la2":30.254,"lo1":-89.0895,"lo2":-89.0443,"dy":0.0025,"dx":0.0025,"nx":19,"ny":19,"refTime":"2026-04-30T09:00:00:Z","depth":"2","parameterNumber":3,"parameterNumberName":"V-component_of_CURRENTS"},"data":[0,0,0,0.0004,0.0001,-0.0124,-0.0124,-0.0175,-0.0175,0,0,0,0,0,0,0,0,0,0,0,0.0077,0.0076,0.0004,0.0001,-0.0123,-0.0124,-0.0175,-0.0175,0,0,0,0,0,0,0,0,0,0,0,0.0077,0.0076,0.0076,0.0,-0.0123,-0.0124,-0.0175,-0.0107,0,0,0,0,0,0,0,0,0,0,0.0001,0.0043,0.0076,0.0076,-0.0001,-0.0123,-0.0124,-0.0104,-0.0111,-0.0089,0,-0.0094,0,-0.0149,-0.0177,-0.0177,0,0,0,0.0006,0.0048,0.0017,0.0076,-0.0002,-0.0123,-0.0066,-0.0109,-0.0116,-0.0097,-0.0096,-0.01,-0.015,-0.0177,-0.0177,-0.0168,-0.0167,0,0,0.0013,0.0048,0.0022,0.0013,-0.0013,-0.0062,-0.007,-0.0114,-0.0111,-0.0096,-0.0102,-0.0151,-0.0177,-0.0177,-0.0168,-0.0167,0,0,0,0.0029,0.0054,0.0021,0.0017,-0.0022,-0.0066,-0.0075,-0.0109,-0.0119,-0.0103,-0.0151,-0.0177,-0.0177,-0.0168,-0.0168,-0.0101,0,0,0,0.0033,0.0062,0.0025,0.0044,-0.0021,-0.0086,-0.0068,-0.0115,-0.0123,-0.0151,-0.0177,-0.0178,-0.0168,-0.0168,-0.0104,-0.0051,0,0,0,0.0078,0.0065,0.0058,0.0046,-0.0014,-0.0087,-0.01,-0.0118,-0.0152,-0.0177,-0.0178,-0.0169,-0.0168,-0.0106,-0.0055,0.0003,0,0,0,0.0108,0.011,0.006,0.0052,-0.0013,-0.0063,-0.0101,-0.0145,-0.0163,-0.0177,-0.0168,-0.0168,-0.0106,-0.0058,-0.0,0.0043,0.0062,0,0,0.0126,0.0113,0.0109,0.006,0.0025,-0.0046,-0.006,-0.0105,-0.0144,-0.0146,-0.0147,-0.0103,-0.0056,0.0002,0.0079,0.0098,0,0,0,0.0124,0.0127,0.0107,0.0075,0.0021,0.0,-0.0069,-0.0089,-0.0109,-0.0156,-0.0109,-0.0081,-0.0046,-0.0028,-0.0013,-0.0165,-0.0165,-0.0165,-0.0165,0.0186,0.0155,0.0153,0.0117,0.0096,0.003,0.0023,-0.001,-0.0065,-0.0066,-0.0032,0.0053,0.0072,0.0084,-0.0052,-0.0051,-0.0051,-0.0051,-0.0051,0.0223,0.0224,0.0206,0.0196,0.0173,0.0168,0.0124,0.0086,0.0092,0.0023,0.0053,0.0035,0.0104,-0.0046,-0.0047,-0.0047,-0.0048,-0.0048,-0.0049,0.0262,0.0261,0.026,0.0266,0.0288,0.0254,0.0297,0.0242,0.0175,0.02,0.0211,0.021,0.0115,0.0206,0.0207,0.0208,0.0208,0.0208,0.0209,0.0298,0.0297,0.0319,0.0338,0.0362,0.0393,0.0394,0.0402,0.0371,0.0309,0.0309,0.0141,0.0132,0.013,0.0216,0.0215,0.0214,0.0213,0.0213,0.0326,0.0332,0.0367,0.0393,0.0453,0.0513,0.0526,0.0553,0.0554,0.0548,0.0371,0.0364,0.0355,0.0342,0.0344,0.0482,0.0482,0.0482,0.0482,0.0348,0.0353,0.0398,0.0445,0.0513,0.0559,0.0621,0.0605,0.0553,0.0488,0.0487,0.0419,0.0409,0.0397,0.0383,0.0383,0.0531,0.0531,0.053,0.0365,0.0377,0.0412,0.0453,0.0531,0.06,0.0636,0.0593,0.0515,0.0527,0.0436,0.0497,0.0391,0.0378,0.0349,0.0331,0.0327,0,0]}],[{"header":{"parameterUnit":"m.s-1","parameterCategory":2,"la1":30.2992,"la2":30.254,"lo1":-89.0895,"lo2":-89.0443,"dy":0.0025,"dx":0.0025,"nx":19,"ny":19,"refTime":"2026-04-30T09:00:00:Z","depth":"4","parameterNumber":2,"parameterNumberName":"U-component_of_CURRENTS"},"data":[0,0,0,0.0912,0.0911,0.0845,0.0844,0.0847,0.0847,0,0,0,0,0,0,0,0,0,0,0,0.0943,0.0943,0.0912,0.0911,0.0845,0.0844,0.0847,0.0847,0,0,0,0,0,0,0,0,0,0,0,0.0943,0.0943,0.0943,0.0911,0.0845,0.0844,0.0846,0.0872,0,0,0,0,0,0,0,0,0,0,0.0924,0.096,0.0943,0.0943,0.0911,0.0845,0.0844,0.0872,0.087,0.0906,0,0.0909,0,0.0884,0.085,0.0851,0,0,0,0.0897,0.0961,0.093,0.0943,0.091,0.0845,0.0871,0.087,0.0868,0.0904,0.0908,0.0907,0.0884,0.0851,0.0851,0.0986,0.0987,0,0,0.0901,0.0942,0.0931,0.093,0.0913,0.0873,0.0869,0.0868,0.0885,0.0908,0.0907,0.0884,0.0851,0.0852,0.0985,0.0986,0,0,0,0.0921,0.0945,0.0911,0.0931,0.0915,0.0872,0.0867,0.0885,0.0871,0.0907,0.0884,0.0851,0.0852,0.0984,0.0985,0.0973,0,0,0,0.0922,0.0957,0.0914,0.0938,0.0915,0.0891,0.0885,0.087,0.0869,0.0884,0.0851,0.0853,0.0982,0.0985,0.097,0.0997,0,0,0,0.0942,0.0959,0.0953,0.0941,0.0915,0.089,0.0875,0.0868,0.0857,0.0851,0.0853,0.0982,0.0984,0.0968,0.0994,0.1037,0,0,0,0.0981,0.0975,0.0955,0.0947,0.0916,0.0875,0.0874,0.0869,0.0868,0.0852,0.0983,0.0985,0.0968,0.0991,0.1035,0.0839,0,0,0,0.0985,0.0978,0.0967,0.0946,0.0902,0.0882,0.0886,0.0898,0.0926,0.0984,0.0986,0.0971,0.0993,0.1037,0.0996,0,0,0,0,0.0974,0.0969,0.0948,0.0929,0.0895,0.0857,0.0866,0.0921,0.0983,0.0939,0.1028,0.1045,0.1071,0.0953,0.0998,0.0998,0.0997,0.0997,0.0997,0.1007,0.0979,0.0949,0.0887,0.0886,0.0889,0.0901,0.0989,0.1004,0.106,0.1074,0.116,0.1038,0.1105,0.1105,0.1105,0.1105,0.1105,0.1105,0.0994,0.096,0.0961,0.0932,0.0905,0.0934,0.0982,0.1014,0.1126,0.1128,0.1152,0.0998,0.1105,0.1105,0.1105,0.1105,0.1105,0.1105,0.1105,0.099,0.0963,0.0971,0.0964,0.0976,0.098,0.1039,0.1099,0.1161,0.1182,0.1103,0.1186,0.1141,0.1217,0.1217,0.1218,0.1218,0.1218,0.1218,0.0975,0.0967,0.0977,0.0979,0.0981,0.1013,0.1076,0.1081,0.1154,0.1118,0.1224,0.1199,0.1196,0.1151,0.1223,0.1222,0.1222,0.1221,0.1221,0.0928,0.0967,0.0968,0.0979,0.0967,0.0957,0.1035,0.1008,0.1036,0.1014,0.107,0.1076,0.1074,0.1074,0.1024,0.1061,0.1058,0.1056,0,0.091,0.0923,0.0934,0.0934,0.0906,0.0917,0.0874,0.0876,0.0934,0.0946,0.1059,0.1127,0.1129,0.1128,0.1125,0.1067,0,0,0,0.0881,0.0892,0.0883,0.0898,0.0859,0.0814,0.0848,0.0829,0.0949,0.0834,0.1,0.1015,0.102,0.1238,0.1251,0.1247,0.1177,0,0]},{"header":{"parameterUnit":"m.s-1","parameterCategory":2,"la1":30.2992,"la2":30.254,"lo1":-89.0895,"lo2":-89.0443,"dy":0.0025,"dx":0.0025,"nx":19,"ny":19,"refTime":"2026-04-30T09:00:00:Z","depth":"4","parameterNumber":3,"parameterNumberName":"V-component_of_CURRENTS"},"data":[0,0,0,0.0161,0.0162,0.0225,0.0225,0.0291,0.0291,0,0,0,0,0,0,0,0,0,0,0,0.0139,0.0139,0.0161,0.0162,0.0225,0.0225,0.0291,0.0291,0,0,0,0,0,0,0,0,0,0,0,0.0139,0.0139,0.0139,0.0162,0.0225,0.0225,0.0291,0.0249,0,0,0,0,0,0,0,0,0,0,0.019,0.0176,0.0139,0.0139,0.0162,0.0224,0.0225,0.0247,0.0251,0.0256,0,0.0262,0,0.0275,0.0295,0.0295,0,0,0,0.0169,0.0172,0.0181,0.0139,0.0163,0.0224,0.0198,0.0249,0.0254,0.0262,0.0263,0.0266,0.0276,0.0295,0.0295,0.0356,0.0356,0,0,0.0166,0.016,0.0178,0.0184,0.0175,0.0196,0.02,0.0253,0.026,0.0263,0.0267,0.0277,0.0295,0.0296,0.0356,0.0356,0,0,0,0.0151,0.0157,0.0166,0.0181,0.0192,0.0198,0.0203,0.0258,0.0258,0.0268,0.0278,0.0296,0.0296,0.0355,0.0356,0.0338,0,0,0,0.0149,0.0148,0.0164,0.0162,0.0191,0.0229,0.0207,0.0255,0.0261,0.0277,0.0296,0.0297,0.0355,0.0356,0.0338,0.0321,0,0,0,0.0137,0.0147,0.0151,0.0161,0.0184,0.0229,0.0233,0.0257,0.0267,0.0295,0.0297,0.0355,0.0355,0.0338,0.0321,0.0317,0,0,0,0.0133,0.0141,0.0151,0.0164,0.0184,0.0224,0.0233,0.027,0.0295,0.0296,0.0355,0.0356,0.0338,0.0321,0.0318,0.0309,0,0,0,0.0138,0.0141,0.0148,0.0158,0.0193,0.0216,0.0257,0.0291,0.0307,0.0337,0.0339,0.0338,0.0321,0.0317,0.035,0,0,0,0,0.0147,0.0153,0.0168,0.0188,0.0217,0.0252,0.0288,0.03,0.0332,0.0323,0.0357,0.0347,0.0345,0.0342,0.0359,0.0359,0.0359,0.0359,0.0359,0.0163,0.0168,0.0188,0.0207,0.0234,0.0279,0.0296,0.032,0.0342,0.0353,0.0347,0.0351,0.035,0.0369,0.0369,0.0369,0.0369,0.0369,0.0369,0.0178,0.0188,0.0198,0.0218,0.0247,0.028,0.0311,0.0321,0.0333,0.0352,0.0351,0.0342,0.0368,0.0368,0.0368,0.0368,0.0368,0.0369,0.0369,0.0196,0.0198,0.0205,0.0229,0.0253,0.0287,0.0307,0.0317,0.0318,0.031,0.0325,0.034,0.0325,0.0323,0.0323,0.0323,0.0323,0.0323,0.0323,0.0209,0.0215,0.0232,0.0248,0.0266,0.0289,0.031,0.0308,0.0308,0.0301,0.0314,0.0335,0.0337,0.0323,0.0321,0.0322,0.0322,0.0322,0.0322,0.0218,0.0234,0.0256,0.0274,0.0303,0.0313,0.0328,0.0309,0.0301,0.028,0.0297,0.0298,0.0301,0.0304,0.0289,0.0277,0.0277,0.0276,0,0.0232,0.0238,0.0275,0.0305,0.0328,0.033,0.0325,0.0313,0.0286,0.0285,0.0297,0.0318,0.0319,0.0325,0.0326,0.031,0,0,0,0.0236,0.0249,0.0275,0.0309,0.0335,0.0321,0.032,0.0311,0.0292,0.0271,0.0273,0.0274,0.0313,0.0317,0.0326,0.0328,0.0306,0,0]}]]